User: anonymous
Location: Unspecified
(0.0000°N, 0.0000°E)
Time: 20:50:21
(UTC+02:00)
Language:

Cosmos 1437 - Orbit

View from above orbital plane
View from above orbital plane
View from above satellite
View from above satellite

Ground track
Ground track

The orbit data is extracted from the following two-line orbital elements,

1 13770U 83003A   14210.44931551  .00004820  00000-0  15751-3 0  6096
2 13770 081.1677 345.6881 0010265 335.2114 084.4296 15.31473935724049
Epoch (UTC): 29 July 2014 10:47:00
Eccentricity: 0.0010265
inclination: 81.1677°
perigee height: 464 km
apogee height: 478 km
right ascension of ascending node: 345.6881°
argument of perigee: 335.2114°
revolutions per day: 15.31473935
mean anomaly at epoch: 84.4296°
orbit number at epoch: 72404

The dashed part of the orbit path shows where the satellite is in the earth's shadow,  

DLR